DateTimeUTC,F1_A11,F1_S11,BsB_S11,BsG_S11,BsR_S11,BbsB_S11,BbsG_S11,BbsR_S11,BaB_A11,BaG_A11,BaR_A11,Tu_S11,T_S11,Uu_S11,U_S11,P_S11,T1_A11
2021-10-20T05:00:00Z,00000200,20000000,,,,,,,-000.61,0000.08,0000.20,17.5,24.3,01.7,01.1,0669.1,31.0
2021-10-20T05:01:00Z,00000200,20000000,,,,,,,0000.34,-000.20,-000.38,17.5,24.3,01.7,01.1,0669.1,31.0
2021-10-20T05:02:00Z,00000200,20000000,,,,,,,-000.16,-000.03,0000.27,17.5,24.3,01.7,01.1,0669.1,31.0
2021-10-20T05:03:00Z,00000200,60000000,,,,,,,0000.48,0000.08,-000.14,17.5,24.4,01.7,01.1,0669.1,31.0
2021-10-20T05:04:00Z,00000200,41000000,0002.46,0001.26,0000.85,0000.50,0000.27,0000.05,0000.38,0000.65,0000.63,17.7,24.3,01.7,01.2,0670.0,31.0
2021-10-20T05:05:00Z,00000200,01000000,0001.83,0001.53,0000.63,0000.36,0000.29,0000.07,0000.21,0000.42,0000.00,17.8,24.3,01.8,01.2,0670.0,31.0
2021-10-20T05:06:00Z,00000200,01000000,0001.27,0001.68,0000.79,0000.54,0000.35,0000.30,0000.76,0000.61,0000.74,17.8,24.3,01.7,01.1,0670.0,31.0
2021-10-20T05:07:00Z,00000200,01000000,0002.40,0001.42,0000.96,0001.09,0000.32,0000.26,0000.27,0000.30,0000.41,17.8,24.2,01.7,01.2,0670.0,31.0
2021-10-20T05:08:00Z,00000200,01000000,0001.39,0000.75,0000.60,0000.78,0000.25,0000.22,0000.69,0000.65,-000.10,17.8,24.2,01.8,01.2,0670.0,31.0
2021-10-20T05:09:00Z,00000200,01000000,0001.93,0001.33,0000.73,-000.04,0000.21,0000.31,0000.18,0000.08,0000.19,17.8,24.2,01.9,01.3,0670.0,31.0
2021-10-20T05:10:00Z,00000200,01000000,0001.99,0001.57,0000.81,0001.11,0000.10,0000.06,0001.00,0000.80,0000.71,17.8,24.1,01.8,01.2,0670.0,31.0
2021-10-20T05:11:00Z,00000200,00000000,0001.89,0001.04,0000.79,0000.73,0000.44,0000.11,0000.41,0000.44,0000.03,17.7,24.1,01.9,01.3,0670.0,31.0
2021-10-20T05:12:00Z,00000200,01000000,0001.43,0001.37,0000.88,0000.58,0000.17,0000.16,0000.51,0000.20,0000.43,17.7,24.1,02.0,01.3,0670.0,31.0
2021-10-20T05:13:00Z,00000200,00000000,0001.36,0001.11,0000.69,0000.61,0000.71,0000.07,0000.61,0000.87,0000.64,17.7,24.1,02.0,01.3,0670.0,31.0
2021-10-20T05:14:00Z,00000200,00000000,0001.82,0001.11,0000.59,0000.80,0000.33,-000.08,-000.29,-000.29,0000.22,17.7,24.1,01.9,01.3,0670.0,31.0
2021-10-20T05:15:00Z,00000200,01000000,0001.48,0001.24,0000.91,0000.57,0000.25,0000.29,0000.83,0000.54,-000.15,17.6,24.0,02.0,01.3,0670.0,31.0
2021-10-20T05:16:00Z,00000200,01000000,0000.29,0001.27,0000.98,0000.11,0000.05,0000.18,0000.46,0000.08,-000.18,17.7,24.0,02.0,01.3,0670.0,31.0
2021-10-20T05:17:00Z,00000200,00000000,0001.82,0000.83,0000.73,0001.06,0000.47,0000.36,0000.06,0000.44,0000.59,17.7,24.1,01.9,01.3,0669.9,31.0
2021-10-20T05:18:00Z,00000200,01000000,0001.46,0001.36,0000.62,0000.54,0000.15,0000.23,-000.09,0000.14,0000.27,17.7,24.1,01.8,01.2,0669.9,31.0
2021-10-20T05:19:00Z,00000200,01000000,0002.15,0001.42,0000.69,0000.81,0000.34,0000.10,0000.75,0000.43,0000.31,17.8,24.1,01.7,01.2,0669.9,31.0
2021-10-20T05:20:00Z,00000200,01000000,0001.70,0001.26,0000.46,0000.35,0000.34,0000.15,0000.59,0000.19,0000.33,17.9,24.2,01.8,01.2,0669.9,31.0
2021-10-20T05:21:00Z,00000200,01000000,0001.83,0001.00,0000.73,0000.77,0000.35,-000.01,-000.06,0000.50,0000.33,17.9,24.2,01.7,01.2,0669.9,31.0
2021-10-20T05:22:00Z,00000200,01000000,0002.16,0001.20,0000.85,0000.26,0000.30,0000.47,0000.45,0000.26,-000.15,17.9,24.2,01.8,01.2,0669.9,31.0
2021-10-20T05:23:00Z,00000200,01000000,0002.35,0001.27,0000.78,0000.90,0000.40,0000.40,0000.37,0000.41,0000.52,17.9,24.2,01.7,01.1,0669.9,31.0
2021-10-20T05:24:00Z,00000200,01000000,0001.28,0001.33,0000.69,0000.22,0000.38,0000.22,0000.29,0000.54,0000.05,17.9,24.2,01.6,01.1,0669.9,31.0
2021-10-20T05:25:00Z,00000200,01000000,0001.88,0001.50,0000.81,0000.82,0000.28,-000.09,0000.37,0000.26,0000.26,17.9,24.2,01.6,01.1,0669.9,31.0
2021-10-20T05:26:00Z,00000200,01000000,0001.32,0001.51,0000.72,0000.80,0000.04,0000.39,0000.25,0000.09,0000.36,17.8,24.1,01.6,01.1,0669.9,31.0
2021-10-20T05:27:00Z,00000200,01000000,0002.23,0001.37,0000.78,0000.71,0000.22,0000.25,0000.13,-000.05,0000.03,17.8,24.1,01.5,01.0,0669.9,31.0
2021-10-20T05:28:00Z,00000200,01000000,0001.82,0001.20,0000.90,0000.45,0000.33,0000.05,0000.00,0000.12,0000.19,17.8,24.1,01.5,01.0,0669.9,31.0
2021-10-20T05:29:00Z,00000200,01000000,0001.59,0001.05,0000.92,-000.01,0000.50,0000.18,0000.73,0000.55,0000.18,17.7,24.1,01.5,01.0,0669.9,31.0
2021-10-20T05:30:00Z,00000200,01000000,0002.08,0001.49,0000.90,0001.14,0000.08,-000.05,0000.22,0000.25,0000.28,17.7,24.1,01.6,01.1,0669.9,31.0
2021-10-20T05:31:00Z,00000200,01000000,0002.16,0001.12,0000.52,0000.75,0000.17,0000.31,0000.70,0000.58,0000.19,17.7,24.1,01.6,01.1,0669.9,31.0
2021-10-20T05:32:00Z,00000200,01000000,0001.36,0001.37,0000.77,0001.07,0000.35,0000.22,0000.29,0000.30,0000.56,17.8,24.1,01.6,01.1,0669.9,31.0
2021-10-20T05:33:00Z,00000200,01000000,0001.48,0000.85,0000.99,0000.34,0000.44,0000.60,0000.73,0000.63,0000.04,17.8,24.1,01.5,01.0,0669.9,31.0
2021-10-20T05:34:00Z,00000200,01000000,0001.99,0001.01,0000.82,0000.62,0000.15,0000.42,0000.76,0000.54,0000.81,17.8,24.1,01.6,01.1,0669.9,31.0
2021-10-20T05:35:00Z,00000200,01000000,0001.02,0001.36,0000.80,0000.75,0000.15,0000.13,-000.05,-000.06,-000.37,17.9,24.2,01.7,01.1,0669.9,31.0
2021-10-20T05:36:00Z,00000200,01000000,0002.33,0001.29,0000.59,0000.66,0000.17,-000.01,0000.46,0000.23,0000.51,17.9,24.2,01.6,01.1,0669.9,31.0
2021-10-20T05:37:00Z,00000200,01000000,0001.84,0001.47,0000.45,0000.74,0000.33,0000.27,0000.21,0000.55,-000.15,17.8,24.2,01.4,01.0,0669.9,31.0
2021-10-20T05:38:00Z,00000200,01000000,0001.26,0001.23,0000.93,0000.69,0000.17,0000.20,0000.47,0000.60,0000.22,17.8,24.1,01.4,01.0,0669.9,31.0
2021-10-20T05:39:00Z,00000200,01000000,0000.97,0001.15,0000.70,0000.90,0000.38,0000.43,0000.16,-000.05,0001.08,17.8,24.1,01.4,00.9,0669.9,31.0
2021-10-20T05:40:00Z,00000200,01000000,0001.24,0001.11,0000.74,0000.94,0000.23,0000.53,0000.61,0000.02,-000.10,17.7,24.1,01.4,00.9,0669.9,31.0
2021-10-20T05:41:00Z,00000200,01000000,0001.57,0001.21,0001.04,0000.90,0000.45,0000.19,0000.41,0000.87,0000.14,17.7,24.1,01.3,00.9,0669.9,31.0
2021-10-20T05:42:00Z,00000200,01000000,0001.36,0001.11,0000.80,0000.88,0000.66,0000.08,0000.24,0000.00,0000.23,17.7,24.0,01.4,00.9,0669.9,31.0
2021-10-20T05:43:00Z,00000200,01000000,0002.19,0001.11,0000.69,0000.66,0000.41,-000.05,0000.26,0000.28,-000.02,17.7,24.0,01.3,00.9,0669.9,31.0
2021-10-20T05:44:00Z,00000200,01000000,0002.10,0001.22,0000.83,0000.83,0000.16,0000.24,0000.35,0000.31,0000.54,17.6,24.0,01.3,00.9,0669.9,31.0
2021-10-20T05:45:00Z,00000200,01000000,0002.62,0001.29,0000.77,0000.76,-000.05,0000.20,0000.12,0000.37,-000.03,17.6,24.0,01.4,00.9,0669.9,31.0
2021-10-20T05:46:00Z,00000200,01000000,0001.70,0001.45,0000.57,0001.80,0000.03,0000.18,0000.38,0000.28,0000.13,17.6,24.0,01.3,00.9,0669.9,31.0
2021-10-20T05:47:00Z,00000200,01000000,0001.99,0001.19,0000.82,0000.79,0000.35,0000.28,0000.33,-000.03,0000.26,17.7,24.0,01.1,00.8,0669.8,31.0
2021-10-20T05:48:00Z,00000200,01000000,0001.99,0001.25,0000.78,0000.72,0000.42,-000.11,0000.24,0000.33,0000.28,17.7,24.0,01.2,00.8,0669.8,31.0
2021-10-20T05:49:00Z,00000200,01000000,0002.03,0001.31,0000.72,0000.44,0000.31,0000.27,0000.38,0000.19,0000.30,17.7,24.1,01.2,00.8,0669.8,31.0
2021-10-20T05:50:00Z,00000200,01000000,0002.27,0001.18,0000.89,0000.50,0000.20,0000.03,0000.80,0000.54,0000.27,17.8,24.1,01.1,00.7,0669.8,31.0
2021-10-20T05:51:00Z,00000200,01000000,0002.38,0001.21,0000.86,0000.32,0000.19,0000.12,0000.04,0000.40,0000.29,17.8,24.2,01.1,00.7,0669.8,31.0
2021-10-20T05:52:00Z,00000200,01000000,0001.82,0001.08,0000.65,0000.69,0000.16,0000.21,0000.48,0000.54,0000.11,17.8,24.1,01.1,00.8,0669.8,31.0
2021-10-20T05:53:00Z,00000200,01000000,0002.01,0001.35,0000.88,0000.57,0000.20,0000.32,0000.27,-000.08,0000.56,17.8,24.1,01.1,00.7,0669.7,31.0
2021-10-20T05:54:00Z,00000200,01000000,0001.56,0001.19,0000.84,0000.50,0000.32,0000.52,0000.36,0000.49,-000.05,17.8,24.1,01.1,00.7,0669.8,31.0
2021-10-20T05:55:00Z,00000200,01000000,0001.29,0001.03,0000.76,0000.64,0000.28,0000.09,0000.63,0000.28,0000.48,17.7,24.1,01.0,00.7,0669.8,31.0
2021-10-20T05:56:00Z,00000200,01000000,0002.09,0001.25,0001.02,0000.45,0000.44,-000.04,0000.26,0000.68,-000.35,17.7,24.0,01.2,00.8,0669.8,31.0
2021-10-20T05:57:00Z,00000200,40000000,,,,,,,0000.81,0000.50,0001.16,17.7,24.1,01.5,01.0,0669.7,31.0
2021-10-20T05:58:00Z,00000200,61000000,,,,,,,-000.36,-000.04,-000.90,17.4,24.1,01.3,00.8,0668.8,31.0
2021-10-20T05:59:00Z,00000200,21000000,,,,,,,-000.19,-000.39,0000.58,17.4,24.2,01.2,00.8,0668.8,31.0
